Meridian, MS

11:07 AM CDT on October 23, 2019 (GMT -0500)
Key

Weather History for KMEI - August, 2019

Change the Weather History Date:

Wednesday, August 14, 2019

  Actual Average Record
Temperature  
Mean Temperature 86 °F 80 °F  
Max Temperature 95 °F 92 °F 104 °F (2007)
Min Temperature 76 °F 69 °F 53 °F (2004)
Degree Days  
Heating Degree Days 0 0  
Month to date heating degree days 0 0  
Since 1 June heating degree days 0 0  
Since 1 July heating degree days 0 0  
Cooling Degree Days 21 16  
Month to date cooling degree days 275 224  
Year to date cooling degree days 1790 1371  
Since 1 June cooling degree days 1294 1088  
Growing Degree Days 36 (Base 50)    
Moisture  
Dew Point 76 °F    
Average Humidity 76    
Maximum Humidity 94    
Minimum Humidity 58    
Precipitation  
Precipitation T in 0.12 in 1.33 in (1944)
Month to date precipitation 3.18 1.96  
Year to date precipitation 41.76 36.93  
Sea Level Pressure  
Sea Level Pressure 29.92 in    
Wind  
Wind Speed 4 mph (West)    
Max Wind Speed 23 mph    
Max Gust Speed 29 mph    
Visibility 10 miles    
Events Rain , Thunderstorm    
T = Trace of Precipitation, MM = Missing Value Source: NWS Daily Summary

Daily Weather History Graph

Daily Weather History Graph

Search for Another Location

Airport or City:

Astronomy

Aug. 14, 2019 Rise Set
Actual Time 6:18 AM CDT 7:40 PM CDT
Civil Twilight 5:52 AM CDT 8:06 PM CDT
Nautical Twilight 5:21 AM CDT 8:37 PM CDT
Astronomical Twilight 4:49 AM CDT 9:09 PM CDT
Moon 7:30 PM CDT (8/14) 5:21 AM CDT (8/14)
Length of Visible Light 14h 14m
Length of Day
13h 22m
Waxing Gibbous, 99% of the Moon is Illuminated
Aug 14
Waxing Gibbous
Aug 15
Full
Aug 23
Last Quarter
Aug 30
New
Sep 5
First Quarter

Hourly Weather History & Observations

Time (CDT) Temp. Heat Index Dew Point Humidity Pressure Visibility Wind Dir Wind Speed Gust Speed Precip Events Conditions
12:48 AM 82.0 °F 91.6 °F 79.0 °F 90% 29.93 in 10.0 mi SSW 3.5 mph - N/A Thunderstorm Clear
12:58 AM 82.9 °F 93.8 °F 79.0 °F 88% 29.91 in 10.0 mi SSW 3.5 mph - N/A   Clear
1:58 AM 82.0 °F 91.0 °F 78.1 °F 88% 29.90 in 9.0 mi SSW 4.6 mph - N/A   Clear
2:58 AM 81.0 °F 88.6 °F 78.1 °F 91% 29.90 in 9.0 mi Calm Calm - N/A   Scattered Clouds
3:58 AM 81.0 °F 88.6 °F 78.1 °F 91% 29.91 in 9.0 mi NNW 6.9 mph - N/A   Scattered Clouds
4:58 AM 82.0 °F 89.4 °F 75.9 °F 82% 29.90 in 10.0 mi NE 4.6 mph - N/A   Clear
5:58 AM 81.0 °F 86.7 °F 75.0 °F 82% 29.92 in 10.0 mi Calm Calm - N/A   Partly Cloudy
6:58 AM 81.0 °F 86.7 °F 75.0 °F 82% 29.92 in 10.0 mi Calm Calm - N/A   Clear
7:58 AM 82.9 °F 90.8 °F 75.9 °F 79% 29.94 in 10.0 mi SSW 4.6 mph - N/A   Clear
8:58 AM 84.0 °F 91.9 °F 75.0 °F 74% 29.94 in 10.0 mi WSW 4.6 mph - N/A   Clear
9:58 AM 84.0 °F 93.7 °F 77.0 °F 79% 29.94 in 10.0 mi Variable 4.6 mph - N/A   Clear
10:58 AM 84.0 °F 93.7 °F 77.0 °F 79% 29.96 in 10.0 mi North 3.5 mph - N/A   Clear
11:58 AM 84.9 °F 95.3 °F 77.0 °F 77% 29.95 in 10.0 mi WNW 5.8 mph - 0.00 in Rain Light Rain
12:58 PM 89.1 °F 101.4 °F 77.0 °F 67% 29.93 in 10.0 mi North 12.7 mph - 0.00 in   Partly Cloudy
1:58 PM 91.0 °F 104.2 °F 77.0 °F 63% 29.90 in 10.0 mi NNW 9.2 mph - N/A   Partly Cloudy
2:58 PM 91.9 °F 107.3 °F 78.1 °F 64% 29.87 in 10.0 mi North 4.6 mph - N/A   Partly Cloudy
3:58 PM 95.0 °F 113.1 °F 79.0 °F 60% 29.87 in 10.0 mi NW 8.1 mph - N/A   Clear
4:20 PM 91.9 °F 105.9 °F 77.0 °F 62% 29.88 in 10.0 mi NW 5.8 mph - N/A Thunderstorm Clear
4:33 PM 91.0 °F 104.2 °F 77.0 °F 63% 29.88 in 10.0 mi NW 8.1 mph - N/A Thunderstorm Thunderstorm
4:58 PM 89.1 °F 97.0 °F 73.0 °F 59% 29.88 in 10.0 mi SE 13.8 mph 19.6 mph N/A Thunderstorm Thunderstorm
5:28 PM 84.0 °F 90.2 °F 73.0 °F 69% 29.89 in 10.0 mi ESE 8.1 mph - 0.00 in Thunderstorm Scattered Clouds
5:51 PM 84.0 °F 91.9 °F 75.0 °F 74% 29.91 in 10.0 mi WNW 3.5 mph - 0.00 in   Mostly Cloudy
5:58 PM 84.9 °F 92.1 °F 73.9 °F 69% 29.91 in 10.0 mi Calm Calm - 0.00 in   Mostly Cloudy
6:03 PM 84.9 °F 93.3 °F 75.0 °F 72% 29.93 in 10.0 mi WSW 5.8 mph - N/A Thunderstorm Thunderstorm
6:24 PM 82.9 °F 90.2 °F 75.0 °F 77% 29.93 in 10.0 mi SSW 6.9 mph - N/A Thunderstorm Mostly Cloudy
6:58 PM 82.0 °F 88.6 °F 75.0 °F 79% 29.92 in 10.0 mi Calm Calm - N/A Thunderstorm Scattered Clouds
7:14 PM 82.0 °F 88.6 °F 75.0 °F 79% 29.93 in 10.0 mi South 5.8 mph - N/A   Partly Cloudy
7:58 PM 80.1 °F 84.5 °F 73.9 °F 81% 29.92 in 10.0 mi South 8.1 mph - N/A   Clear
8:58 PM 79.0 °F - 73.9 °F 84% 29.93 in 10.0 mi West 3.5 mph - N/A   Partly Cloudy
9:58 PM 78.1 °F - 73.9 °F 87% 29.95 in 10.0 mi Calm Calm - N/A   Clear
10:58 PM 77.0 °F - 73.0 °F 88% 29.96 in 10.0 mi Calm Calm - N/A   Clear
11:58 PM 77.0 °F - 73.0 °F 88% 29.96 in 10.0 mi Calm Calm - N/A   Clear